This is the latest recevied weather packets stored in our database for station/object W7BL. If no packets are shown the sender has not sent any weather packets the latest 10 day(s).
| Time | Temp. | Humidity | Pressure | Rain* | Wind** | Luminosity | Snow |
|---|---|---|---|---|---|---|---|
| 1777478758 | 11.67° C | 57% | - | 0 mm | - | - | - |
| 1777478454 | 11.67° C | 57% | - | 0 mm | - | - | - |
| 1777478151 | 11.67° C | 58% | - | 0 mm | - | - | - |
| 1777477848 | 11.11° C | 63% | - | 0 mm | - | - | - |
| 1777477543 | 11.67° C | 61% | - | 0 mm | - | - | - |
| 1777477240 | 11.67° C | 62% | - | 0 mm | - | - | - |
| 1777476936 | 11.67° C | 62% | - | 0 mm | - | - | - |
| 1777476634 | 11.67° C | 62% | - | 0 mm | - | - | - |
| 1777476331 | 11.67° C | 66% | - | 0 mm | - | - | - |
| 1777476026 | 10° C | 70% | - | 0 mm | - | - | - |
| 1777475722 | 10° C | 69% | - | 0 mm | - | - | - |
| 1777475419 | 10.56° C | 68% | - | 0 mm | - | - | - |
| 1777475114 | 10° C | 71% | - | 0 mm | - | - | - |
| 1777474811 | 10° C | 69% | - | 0 mm | - | - | - |
| 1777474507 | 9.44° C | 69% | - | 0 mm | - | - | - |
| 1777474204 | 10° C | 68% | - | 0 mm | - | - | - |
| 1777473901 | 10° C | 72% | - | 0 mm | - | - | - |
| 1777473599 | 8.89° C | 74% | - | 0 mm | - | - | - |
| 1777473295 | 8.33° C | 77% | - | 0 mm | - | - | - |
| 1777472990 | 8.33° C | 78% | - | 0 mm | - | - | - |
| 1777472687 | 7.78° C | 78% | - | 0 mm | - | - | - |
| 1777472383 | 7.78° C | 77% | - | 0 mm | - | - | - |
| 1777472082 | 8.33° C | 83% | - | 0 mm | - | - | - |
| 1777471776 | 7.22° C | 80% | - | 0 mm | - | - | - |
| 1777471473 | 7.22° C | 80% | - | 0 mm | - | - | - |
* Rain latest hour (hover to see other rain measurements)
** Current wind speed in m/s (hover to see current wind gust speed)